This is the latest recevied weather packets stored in our database for station/object JS2WAD-13. If no packets are shown the sender has not sent any weather packets the latest 10 day(s).
| Time | Temp. | Humidity | Pressure | Rain* | Wind** | Luminosity | Snow |
|---|---|---|---|---|---|---|---|
| 1777940184 | 15° C | 52% | 911.3 hPa | 0 mm | - | 42 W/m² | - |
| 1777939884 | 15° C | 50% | 911.4 hPa | 0 mm | - | 40 W/m² | - |
| 1777939584 | 15° C | 54% | 911.4 hPa | 0 mm | - | 40 W/m² | - |
| 1777939284 | 15° C | 53% | 911.4 hPa | 0 mm | - | 40 W/m² | - |
| 1777938984 | 14.44° C | 67% | 911.3 hPa | 0 mm | - | 42 W/m² | - |
| 1777938684 | 14.44° C | 62% | 911.3 hPa | 0 mm | - | 44 W/m² | - |
| 1777938384 | 14.44° C | 55% | 911.3 hPa | 0 mm | - | 42 W/m² | - |
| 1777938084 | 14.44° C | 56% | 911.3 hPa | 0 mm | - | 40 W/m² | - |
| 1777937784 | 13.89° C | 54% | 911.3 hPa | 0 mm | - | 44 W/m² | - |
| 1777937485 | 13.89° C | 57% | 911.4 hPa | 0 mm | - | 49 W/m² | - |
| 1777937184 | 13.89° C | 57% | 911.3 hPa | 0 mm | - | 42 W/m² | - |
| 1777936885 | 13.89° C | 56% | 911.3 hPa | 0 mm | - | 32 W/m² | - |
| 1777936585 | 13.89° C | 60% | 911.4 hPa | 0 mm | - | 42 W/m² | - |
| 1777936285 | 13.89° C | 62% | 911.3 hPa | 0 mm | - | 46 W/m² | - |
| 1777935985 | 13.33° C | 58% | 911.3 hPa | 0 mm | - | 35 W/m² | - |
| 1777935685 | 13.33° C | 58% | 911.3 hPa | 0 mm | - | 42 W/m² | - |
| 1777935385 | 13.33° C | 61% | 911.3 hPa | 0 mm | - | 42 W/m² | - |
| 1777935085 | 13.33° C | 61% | 911.2 hPa | 0 mm | - | 39 W/m² | - |
| 1777934785 | 13.33° C | 65% | 911.3 hPa | 0 mm | - | 40 W/m² | - |
| 1777934485 | 12.78° C | 59% | 911.3 hPa | 0 mm | - | 39 W/m² | - |
| 1777934185 | 12.78° C | 63% | 911.3 hPa | 0 mm | - | 40 W/m² | - |
| 1777933885 | 12.78° C | 63% | 911.2 hPa | 0 mm | - | 37 W/m² | - |
| 1777933585 | 12.78° C | 62% | 911.3 hPa | 0 mm | - | 39 W/m² | - |
| 1777933285 | 12.78° C | 65% | 911.2 hPa | 0 mm | - | 33 W/m² | - |
| 1777932985 | 12.78° C | 64% | 911.2 hPa | 0 mm | - | 32 W/m² | - |
* Rain latest hour (hover to see other rain measurements)
** Current wind speed in m/s (hover to see current wind gust speed)